[[{"header":{"parameterUnit":"m.s-1","parameterCategory":1,"la1":30.2991,"la2":30.254,"lo1":-89.0895,"lo2":-89.0444,"dy":0.0017,"dx":0.0017,"nx":28,"ny":28,"refTime":"2025-05-01T03:00:00:Z","depth":0,"parameterNumber":2,"parameterNumberName":"U-component_of_WINDS"},"data":[0,0,0,0,0,0,0,0,0,0,0,0,0,0,0,0,0,0,0,0,0,0,0,0,0,0,0,0,0,0,0,0,0,0,0,0,0,0,0,0,0,0,0,0,0,0,0,0,0,0,0,0,0,0,0,0,0,0,-0.0086,-0.0087,0,-0.0203,-0.0204,-0.0206,-0.0255,-0.0255,-0.0255,-0.0255,-0.0382,-0.0385,-0.0389,0,0,0,0,0,0,0,0,0,0,0,0,0,0.0086,0.0083,-0.0086,-0.0087,-0.0089,-0.0203,-0.0204,-0.0206,-0.0255,-0.0255,-0.0255,-0.0255,-0.038,-0.0385,-0.0389,0,0,0,0,0,0,0,0,0,0,0,0,0,-0.0006,0.0082,-0.0085,-0.0127,-0.0132,-0.0202,-0.0204,-0.0206,-0.0255,-0.0255,-0.0255,-0.0254,-0.0379,-0.0384,-0.039,-0.043,0,0,-0.0406,-0.0408,0,0,0,0,0,0,0,0,-0.0001,-0.0012,-0.0119,-0.0124,-0.013,-0.0214,-0.019,-0.0282,-0.0256,-0.0209,-0.0255,-0.0254,-0.0327,-0.0336,-0.0359,-0.0436,-0.0441,-0.0407,-0.041,-0.0412,-0.0414,0,0,0,0,0,0,0,0.0006,-0.0007,-0.0132,-0.0121,-0.0127,-0.0143,-0.0155,-0.0208,-0.0268,-0.0213,-0.0217,-0.0229,-0.0329,-0.0354,-0.0363,-0.0443,-0.0406,-0.0411,-0.0415,-0.0417,-0.0563,-0.0564,0,0,0,0,0,0,0.002,-0.0002,-0.0129,-0.0136,-0.0063,-0.0146,-0.016,-0.0187,-0.0268,-0.028,-0.023,-0.0231,-0.0345,-0.0356,-0.0367,-0.0422,-0.0412,-0.0417,-0.042,-0.0563,-0.0563,-0.0564,0,0,0,0,0,0,0.0024,0.0009,-0.0124,-0.007,-0.0088,-0.0149,-0.018,-0.019,-0.0214,-0.0281,-0.0292,-0.0243,-0.0345,-0.036,-0.0414,-0.0427,-0.042,-0.0425,-0.0562,-0.0563,-0.0564,-0.0531,0,0,0,0,0,0,0.0029,0.0011,-0.0002,-0.007,-0.0091,-0.0166,-0.018,-0.0192,-0.0223,-0.0226,-0.0296,-0.0308,-0.0346,-0.0406,-0.042,-0.0435,-0.0429,-0.0561,-0.0562,-0.0563,-0.0531,-0.053,-0.053,0,0,0,0,0,0.0036,0.0011,-0.0003,-0.0018,-0.0108,-0.0166,-0.0179,-0.022,-0.0223,-0.0239,-0.0283,-0.0305,-0.0423,-0.0411,-0.0427,-0.0444,-0.056,-0.0562,-0.0563,-0.0531,-0.0531,-0.053,0,0,0,0,0,0,0.0077,0.0002,-0.0014,-0.0061,-0.0107,-0.0175,-0.0196,-0.0218,-0.0265,-0.0267,-0.0319,-0.0335,-0.0386,-0.042,-0.0405,-0.0489,-0.0494,-0.0499,-0.0464,-0.0464,-0.0464,-0.0455,-0.0433,0,0,0,0,0,0.0081,0.0043,-0.0022,-0.0057,-0.0079,-0.0133,-0.016,-0.0189,-0.0239,-0.0259,-0.0306,-0.0357,-0.0406,-0.0437,-0.0485,-0.0536,-0.0555,-0.0556,-0.0556,-0.0555,-0.0559,-0.0592,-0.0595,-0.0569,-0.0569,-0.0569,0,0,0.0088,0.0042,0.0021,-0.005,-0.0089,-0.0131,-0.0149,-0.0192,-0.0225,-0.0267,-0.0321,-0.0358,-0.0418,-0.0471,-0.0498,-0.0502,-0.057,-0.0557,-0.0556,-0.056,-0.0594,-0.0596,-0.0598,-0.057,-0.057,-0.057,0,0,0.008,0.0043,0.0008,-0.0031,-0.0089,-0.0125,-0.0133,-0.0199,-0.0224,-0.0279,-0.0313,-0.0354,-0.0436,-0.0478,-0.0511,-0.0538,-0.0563,-0.0553,-0.0551,-0.0583,-0.0585,-0.0587,-0.06,-0.0603,-0.0557,-0.0556,-0.0556,0,0.0095,0.0034,-0.0008,-0.0049,-0.0081,-0.012,-0.0157,-0.0194,-0.0265,-0.0288,-0.0292,-0.0398,-0.0441,-0.0507,-0.0514,-0.0538,-0.0552,-0.0545,-0.0581,-0.0583,-0.0586,-0.0599,-0.0603,-0.0555,-0.0555,-0.0555,-0.0555,0,0.0055,0.0013,-0.0009,-0.0076,-0.011,-0.0149,-0.0201,-0.0231,-0.0258,-0.0295,-0.0353,-0.0406,-0.0467,-0.0485,-0.0511,-0.0556,-0.0557,-0.057,-0.0576,-0.0586,-0.0599,-0.0604,-0.0553,-0.0554,-0.0554,-0.0554,0,0,0.0071,-0.002,-0.0027,-0.006,-0.0128,-0.0163,-0.0206,-0.0264,-0.0291,-0.0341,-0.038,-0.045,-0.0463,-0.05,-0.0532,-0.056,-0.0582,-0.057,-0.0572,-0.0572,-0.0639,-0.063,-0.0634,-0.0599,-0.06,-0.06,-0.0635,0,0.0052,-0.0023,-0.0064,-0.0124,-0.0166,-0.0205,-0.0243,-0.0291,-0.0328,-0.0371,-0.0413,-0.0463,-0.0475,-0.0498,-0.0527,-0.0573,-0.0597,-0.0571,-0.0639,-0.0641,-0.0624,-0.0641,-0.0631,-0.066,-0.064,-0.0641,-0.0641,0,0.0021,-0.0027,-0.009,-0.0156,-0.0176,-0.0209,-0.0267,-0.0307,-0.0365,-0.039,-0.0432,-0.0464,-0.0515,-0.0517,-0.059,-0.0572,-0.0603,-0.063,-0.0633,-0.0642,-0.0642,-0.0652,-0.067,-0.0675,-0.0649,-0.0649,-0.0648,0,0.0036,-0.0044,-0.0093,-0.0119,-0.0197,-0.022,-0.0254,-0.0311,-0.0345,-0.0397,-0.042,-0.0478,-0.0511,-0.0557,-0.0606,-0.0602,-0.0675,-0.0681,-0.0701,-0.07,-0.0715,-0.0713,-0.074,-0.0732,-0.0732,-0.0732,-0.0732,0,0.0019,-0.0019,-0.0087,-0.0117,-0.0163,-0.0211,-0.0256,-0.0293,-0.0344,-0.0385,-0.0424,-0.0462,-0.0523,-0.057,-0.0609,-0.0666,-0.068,-0.0704,-0.0714,-0.0701,-0.0699,-0.0723,-0.0723,-0.0733,-0.0733,-0.0732,-0.0732,0,0.0029,-0.0018,-0.0075,-0.0144,-0.0163,-0.0193,-0.0255,-0.0288,-0.0327,-0.0379,-0.0395,-0.0458,-0.0516,-0.0569,-0.0646,-0.0672,-0.0731,-0.0743,-0.0711,-0.0717,-0.0734,-0.0733,-0.0779,-0.0789,-0.0772,-0.0772,-0.0772,0,0.0021,-0.0009,-0.0083,-0.0112,-0.0145,-0.0191,-0.0226,-0.0276,-0.0311,-0.0381,-0.0407,-0.0467,-0.0518,-0.061,-0.0665,-0.0726,-0.0741,-0.0753,-0.075,-0.0737,-0.0744,-0.0742,-0.0747,-0.0752,-0.0752,-0.0752,-0.0752,0,0.001,-0.0012,-0.0059,-0.0115,-0.0155,-0.0202,-0.0251,-0.0273,-0.0334,-0.0372,-0.0431,-0.047,-0.055,-0.0611,-0.0679,-0.0718,-0.0747,-0.0752,-0.0761,-0.0749,-0.073,-0.0743,-0.0711,-0.0751,-0.0751,-0.0751,-0.0751,-0.0751,0.0009,-0.0021,-0.0077,-0.0129,-0.0171,-0.0216,-0.0252,-0.0296,-0.0345,-0.0412,-0.044,-0.0501,-0.0562,-0.0655,-0.0695,-0.0746,-0.0751,-0.0762,-0.0766,-0.0768,-0.0767,-0.072,-0.0758,-0.0758,-0.0758,-0.0758,-0.0758,0,-0.0005,-0.0044,-0.0091,-0.0158,-0.02,-0.0221,-0.0277,-0.0312,-0.0364,-0.0417,-0.0467,-0.0537,-0.0598,-0.0658,-0.0723,-0.0752,-0.0767,-0.0768,-0.0767,-0.0776,-0.0757,-0.0744,-0.0755,-0.0755,-0.0755,-0.0755,-0.0755,-0.0755,-0.0017,-0.007,-0.0099,-0.0175,-0.0214,-0.0272,-0.0303,-0.0347,-0.039,-0.0466,-0.0515,-0.0553,-0.0611,-0.0681,-0.0739,-0.0756,-0.0779,-0.0776,-0.0797,-0.0777,-0.0777,-0.0777,-0.0765,-0.078,-0.078,-0.0812,-0.0812,-0.0813]},{"header":{"parameterUnit":"m.s-1","parameterCategory":1,"la1":30.2991,"la2":30.254,"lo1":-89.0895,"lo2":-89.0444,"dy":0.0017,"dx":0.0017,"nx":28,"ny":28,"refTime":"2025-05-01T03:00:00:Z","depth":0,"parameterNumber":3,"parameterNumberName":"V-component_of_WINDS"},"data":[0,0,0,0,0,0,0,0,0,0,0,0,0,0,0,0,0,0,0,0,0,0,0,0,0,0,0,0,0,0,0,0,0,0,0,0,0,0,0,0,0,0,0,0,0,0,0,0,0,0,0,0,0,0,0,0,0,0,5.4144,5.4144,0,5.4213,5.4213,5.4214,5.4183,5.4181,5.418,5.4178,5.4241,5.4245,5.4248,0,0,0,0,0,0,0,0,0,0,0,0,0,5.3977,5.398,5.4143,5.4144,5.4145,5.4212,5.4213,5.4214,5.4183,5.4181,5.4179,5.4177,5.424,5.4244,5.4248,0,0,0,0,0,0,0,0,0,0,0,0,0,5.4048,5.3981,5.4143,5.4138,5.4138,5.4212,5.4213,5.4214,5.4184,5.4181,5.4179,5.4176,5.4239,5.4244,5.4249,5.4329,0,0,5.4264,5.4266,0,0,0,0,0,0,0,0,5.4044,5.4054,5.4138,5.4139,5.4139,5.4187,5.4178,5.4253,5.4185,5.4166,5.4178,5.4175,5.4225,5.4231,5.4249,5.4332,5.4335,5.4264,5.4267,5.4269,5.427,0,0,0,0,0,0,0,5.4039,5.405,5.4171,5.4139,5.414,5.413,5.4137,5.4192,5.4209,5.4168,5.4166,5.4175,5.4224,5.4244,5.425,5.4336,5.4264,5.4268,5.4271,5.4273,5.4485,5.4488,0,0,0,0,0,0,5.4035,5.4047,5.4168,5.4173,5.4084,5.4135,5.4143,5.4174,5.4208,5.4211,5.4177,5.4173,5.4237,5.4245,5.4252,5.4346,5.4269,5.4274,5.4276,5.4483,5.4486,5.4489,0,0,0,0,0,0,5.4032,5.4046,5.4166,5.4109,5.4124,5.414,5.4175,5.4177,5.4196,5.4215,5.4217,5.4194,5.4236,5.4245,5.431,5.4348,5.4276,5.428,5.4479,5.4484,5.4487,5.4537,0,0,0,0,0,0,5.4027,5.4045,5.4078,5.411,5.4127,5.4225,5.4178,5.418,5.4206,5.4201,5.4232,5.4235,5.4234,5.4303,5.4315,5.4353,5.4284,5.4476,5.4481,5.4486,5.4532,5.4542,5.4551,0,0,0,0,0,5.4021,5.4088,5.408,5.4095,5.4169,5.4227,5.4236,5.4237,5.4209,5.424,5.4252,5.4234,5.4343,5.431,5.4323,5.4364,5.4473,5.448,5.4486,5.4527,5.454,5.455,0,0,0,0,0,0,5.4057,5.4092,5.4083,5.4164,5.4193,5.4222,5.4262,5.425,5.4286,5.428,5.4277,5.4284,5.4351,5.4364,5.4327,5.4442,5.4403,5.4412,5.4431,5.4443,5.4452,5.4446,5.4288,0,0,0,0,0,5.4076,5.4123,5.415,5.4217,5.4233,5.4245,5.4271,5.4269,5.4298,5.4309,5.4326,5.4352,5.4392,5.4419,5.4457,5.4534,5.4538,5.4568,5.4578,5.4586,5.4592,5.4631,5.4644,5.4509,5.4509,5.4509,0,0,5.4112,5.4137,5.4166,5.4225,5.4248,5.4294,5.4256,5.4306,5.4339,5.4316,5.4378,5.4391,5.4421,5.4491,5.4523,5.4504,5.4631,5.4594,5.46,5.4602,5.4639,5.4651,5.4663,5.4513,5.4512,5.4512,0,0,5.4201,5.4226,5.4284,5.4308,5.4343,5.4351,5.4365,5.4396,5.4404,5.4467,5.4449,5.4487,5.4558,5.4578,5.4598,5.4695,5.4677,5.4707,5.4755,5.4793,5.4804,5.4813,5.4844,5.4856,5.4714,5.4715,5.4715,0,5.424,5.4312,5.4315,5.4367,5.4392,5.4376,5.4432,5.4454,5.4499,5.4515,5.4494,5.458,5.4599,5.4673,5.4697,5.4715,5.4727,5.4702,5.4803,5.4812,5.4821,5.485,5.4862,5.4718,5.4717,5.4717,5.4717,0,5.4357,5.4407,5.4449,5.4495,5.4525,5.4579,5.4587,5.4617,5.4612,5.4621,5.4683,5.4705,5.4746,5.4764,5.476,5.4837,5.4824,5.4803,5.4764,5.4837,5.4864,5.4876,5.4722,5.4721,5.472,5.4719,0,0,5.447,5.4517,5.4532,5.4551,5.4589,5.4626,5.4678,5.472,5.4744,5.4776,5.4816,5.4876,5.4857,5.4879,5.4877,5.4911,5.4981,5.4885,5.4886,5.4899,5.5064,5.5077,5.509,5.4972,5.4974,5.4976,5.506,0,5.4559,5.4653,5.4657,5.4741,5.4784,5.4769,5.4814,5.484,5.485,5.4886,5.4896,5.4937,5.491,5.4923,5.4956,5.4966,5.5014,5.496,5.5006,5.5008,5.4996,5.5105,5.512,5.5198,5.5071,5.5073,5.5075,0,5.4676,5.4713,5.4802,5.4831,5.4849,5.489,5.4928,5.4964,5.4992,5.4997,5.5022,5.5014,5.5064,5.5026,5.5092,5.5056,5.5075,5.5083,5.5086,5.5087,5.5043,5.5107,5.5224,5.5234,5.5092,5.5091,5.509,0,5.4745,5.4817,5.4878,5.4896,5.4933,5.4961,5.4977,5.5004,5.5028,5.5061,5.5076,5.5113,5.5133,5.5161,5.5162,5.5135,5.5228,5.5191,5.523,5.523,5.5248,5.5246,5.5367,5.5266,5.5266,5.5266,5.5265,0,5.4842,5.4896,5.491,5.4947,5.5006,5.5009,5.5067,5.508,5.5104,5.5141,5.5131,5.5166,5.5167,5.5202,5.5204,5.5257,5.5266,5.5269,5.5268,5.5268,5.5267,5.5278,5.5271,5.5269,5.5268,5.5267,5.5267,0,5.4928,5.494,5.5006,5.5036,5.5044,5.5086,5.511,5.5144,5.5154,5.5201,5.5212,5.5225,5.5266,5.5271,5.5318,5.5319,5.5382,5.5377,5.5373,5.5371,5.5409,5.5404,5.5538,5.5554,5.5446,5.5447,5.5448,0,5.4988,5.503,5.5064,5.509,5.5108,5.5149,5.5175,5.5179,5.5205,5.524,5.5269,5.5309,5.5341,5.5406,5.5418,5.5453,5.5447,5.5491,5.5451,5.545,5.5443,5.5439,5.5442,5.5498,5.5499,5.55,5.5501,0,5.5092,5.5096,5.5134,5.5174,5.5205,5.5236,5.5265,5.5286,5.5293,5.5323,5.5365,5.539,5.5439,5.5477,5.5512,5.5525,5.5513,5.5514,5.5524,5.5523,5.5517,5.5517,5.539,5.551,5.5509,5.5508,5.5508,5.5507,5.5164,5.52,5.5229,5.5271,5.5294,5.5322,5.5355,5.5368,5.5405,5.5446,5.5445,5.5491,5.5516,5.5562,5.5578,5.5612,5.5597,5.5612,5.5616,5.5619,5.5621,5.5515,5.5618,5.5618,5.5618,5.5618,5.5618,0,5.5265,5.5283,5.5323,5.5364,5.5397,5.5386,5.5417,5.5444,5.5485,5.5511,5.5543,5.559,5.5627,5.5643,5.5678,5.5702,5.5697,5.5711,5.5708,5.571,5.5634,5.562,5.5714,5.5714,5.5714,5.5714,5.5714,5.5714,5.5321,5.5379,5.5386,5.5454,5.5471,5.5517,5.5536,5.556,5.558,5.5634,5.5666,5.5676,5.5697,5.5734,5.5766,5.577,5.5782,5.5798,5.5798,5.5726,5.5716,5.5706,5.5693,5.5801,5.5801,5.5871,5.5871,5.5872]}]]